START_TIME,STEP,MOV.,P11,t_acc.,P23,t_acc.,P27,t_acc.,A4,t_acc.
1979-07-28 06:00:22.300 ,0,1,1.,4.8,0.,4.8,0.,4.8,0.,4.8
1979-07-28 06:00:27.100 ,0,1,2.,4.8,0.,4.8,1.,4.8,0.,4.8
1979-07-28 06:00:31.900 ,0,1,6.,4.8,0.,4.8,0.,4.8,0.,4.8
1979-07-28 06:00:36.700 ,0,1,4.,4.8,0.,4.8,0.,4.8,0.,4.8
1979-07-28 06:00:41.500 ,0,1,2.,4.8,0.,4.8,0.,4.8,0.,4.8
1979-07-28 06:00:46.300 ,4,1,4.,4.8,0.,4.8,0.,4.8,0.,4.8
1979-07-28 06:00:51.100 ,4,1,5.,4.8,0.,4.8,0.,4.8,0.,4.8
1979-07-28 06:00:55.900 ,4,1,3.,4.8,0.,4.8,1.,4.8,0.,4.8
1979-07-28 06:01:00.700 ,4,1,0.,4.8,0.,4.8,0.,4.8,0.,4.8
1979-07-28 06:01:05.500 ,4,1,6.,4.8,0.,4.8,0.,4.8,0.,4.8
1979-07-28 06:01:10.300 ,7,1,7.,4.8,0.,4.8,0.,4.8,0.,4.8
1979-07-28 06:01:15.100 ,7,1,3.,4.8,0.,4.8,0.,4.8,0.,4.8
1979-07-28 06:01:19.900 ,7,1,0.,4.8,0.,4.8,0.,4.8,0.,4.8
1979-07-28 06:01:24.700 ,7,1,1.,4.8,0.,4.8,0.,4.8,0.,4.8
1979-07-28 06:01:29.500 ,7,1,4.,4.8,0.,4.8,0.,4.8,0.,4.8
1979-07-28 06:01:34.300 ,3,1,2.,4.8,0.,4.8,0.,4.8,0.,4.8
1979-07-28 06:01:39.100 ,3,1,5.,4.8,0.,4.8,1.,4.8,0.,4.8
1979-07-28 06:01:43.900 ,3,1,3.,4.8,0.,4.8,0.,4.8,0.,4.8
1979-07-28 06:01:48.700 ,3,1,2.,4.8,0.,4.8,0.,4.8,0.,4.8
1979-07-28 06:01:53.500 ,3,1,2.,4.8,0.,4.8,0.,4.8,0.,4.8
1979-07-28 06:01:58.300 ,0,1,7.,4.8,0.,4.8,0.,4.8,0.,4.8
1979-07-28 06:02:03.100 ,0,1,3.,4.8,1.,4.8,1.,4.8,0.,4.8
1979-07-28 06:02:07.900 ,0,1,4.,4.8,0.,4.8,0.,4.8,0.,4.8
1979-07-28 06:02:12.700 ,0,1,4.,4.8,0.,4.8,0.,4.8,0.,4.8
1979-07-28 06:02:17.500 ,0,1,3.,4.8,0.,4.8,0.,4.8,0.,4.8
1979-07-28 06:02:22.300 ,4,1,4.,4.8,0.,4.8,0.,4.8,0.,4.8
1979-07-28 06:02:27.100 ,4,1,5.,4.8,0.,4.8,0.,4.8,0.,4.8
1979-07-28 06:02:31.900 ,4,1,5.,4.8,0.,4.8,0.,4.8,0.,4.8
1979-07-28 06:02:36.700 ,4,1,4.,4.8,0.,4.8,0.,4.8,0.,4.8
1979-07-28 06:02:41.500 ,4,1,5.,4.8,0.,4.8,0.,4.8,0.,4.8
1979-07-28 06:02:46.300 ,7,1,5.,4.8,0.,4.8,0.,4.8,0.,4.8
1979-07-28 06:02:51.100 ,7,1,4.,4.8,0.,4.8,1.,4.8,0.,4.8
1979-07-28 06:02:55.900 ,7,1,2.,4.8,0.,4.8,0.,4.8,0.,4.8
1979-07-28 06:03:00.700 ,7,1,3.,4.8,0.,4.8,0.,4.8,0.,4.8
1979-07-28 06:03:05.500 ,7,1,3.,4.8,0.,4.8,0.,4.8,0.,4.8
1979-07-28 06:03:10.300 ,3,1,1.,4.8,0.,4.8,0.,4.8,0.,4.8
1979-07-28 06:03:15.100 ,3,1,1.,4.8,0.,4.8,0.,4.8,0.,4.8
1979-07-28 06:03:19.900 ,3,1,0.,4.8,0.,4.8,0.,4.8,0.,4.8
1979-07-28 06:03:24.700 ,3,1,7.,4.8,0.,4.8,0.,4.8,0.,4.8
1979-07-28 06:03:29.500 ,3,1,5.,4.8,0.,4.8,1.,4.8,0.,4.8
1979-07-28 06:03:34.300 ,0,1,7.,4.8,0.,4.8,0.,4.8,0.,4.8
1979-07-28 06:03:39.100 ,0,1,5.,4.8,0.,4.8,0.,4.8,0.,4.8
1979-07-28 06:03:43.900 ,0,1,6.,4.8,0.,4.8,0.,4.8,0.,4.8
1979-07-28 06:03:48.700 ,0,1,5.,4.8,0.,4.8,0.,4.8,0.,4.8
1979-07-28 06:03:53.500 ,0,1,1.,4.8,0.,4.8,0.,4.8,0.,4.8
1979-07-28 06:03:58.300 ,4,1,1.,4.8,0.,4.8,0.,4.8,0.,4.8
1979-07-28 06:04:03.100 ,4,1,5.,4.8,0.,4.8,0.,4.8,0.,4.8
1979-07-28 06:04:07.900 ,4,1,2.,4.8,0.,4.8,0.,4.8,0.,4.8
1979-07-28 06:04:12.700 ,4,1,0.,4.8,0.,4.8,0.,4.8,0.,4.8
1979-07-28 06:04:17.500 ,4,1,5.,4.8,0.,4.8,1.,4.8,0.,4.8
1979-07-28 06:04:22.300 ,7,1,2.,4.8,0.,4.8,0.,4.8,0.,4.8
1979-07-28 06:04:27.100 ,7,1,2.,4.8,0.,4.8,0.,4.8,0.,4.8
1979-07-28 06:04:31.900 ,7,1,4.,4.8,0.,4.8,1.,4.8,0.,4.8
1979-07-28 06:04:36.700 ,7,1,0.,4.8,0.,4.8,1.,4.8,0.,4.8
1979-07-28 06:04:41.500 ,7,1,3.,4.8,0.,4.8,0.,4.8,0.,4.8
1979-07-28 06:04:46.300 ,3,1,3.,4.8,0.,4.8,0.,4.8,0.,4.8
1979-07-28 06:04:51.100 ,3,1,4.,4.8,0.,4.8,0.,4.8,0.,4.8
1979-07-28 06:04:55.900 ,3,1,5.,4.8,0.,4.8,0.,4.8,0.,4.8
1979-07-28 06:05:00.700 ,3,1,1.,4.8,0.,4.8,1.,4.8,0.,4.8
1979-07-28 06:05:05.500 ,3,1,6.,4.8,0.,4.8,0.,4.8,0.,4.8
1979-07-28 06:05:10.300 ,0,1,5.,4.8,0.,4.8,0.,4.8,0.,4.8
1979-07-28 06:05:15.100 ,0,1,1.,4.8,0.,4.8,0.,4.8,0.,4.8
1979-07-28 06:05:19.900 ,0,1,2.,4.8,0.,4.8,0.,4.8,0.,4.8
1979-07-28 06:05:24.700 ,0,1,1.,4.8,0.,4.8,0.,4.8,0.,4.8
1979-07-28 06:05:29.500 ,0,1,1.,4.8,0.,4.8,0.,4.8,0.,4.8
1979-07-28 06:05:34.300 ,0,0,5.,4.8,0.,4.8,0.,4.8,0.,4.8
1979-07-28 06:05:39.100 ,0,0,5.,4.8,0.,4.8,0.,4.8,0.,4.8
1979-07-28 06:05:43.900 ,0,0,4.,4.8,0.,4.8,0.,4.8,0.,4.8
1979-07-28 06:05:48.700 ,0,0,2.,4.8,0.,4.8,0.,4.8,0.,4.8
1979-07-28 06:05:53.500 ,0,0,5.,4.8,0.,4.8,0.,4.8,0.,4.8
1979-07-28 06:05:58.300 ,0,0,3.,4.8,0.,4.8,0.,4.8,0.,4.8
1979-07-28 06:06:03.100 ,0,0,6.,4.8,0.,4.8,0.,4.8,0.,4.8
1979-07-28 06:06:07.900 ,0,0,4.,4.8,0.,4.8,0.,4.8,0.,4.8
1979-07-28 06:06:12.700 ,0,0,4.,4.8,0.,4.8,0.,4.8,0.,4.8
1979-07-28 06:06:17.500 ,0,0,0.,4.8,0.,4.8,0.,4.8,0.,4.8
1979-07-28 06:06:22.300 ,5,0,2.,4.8,0.,4.8,0.,4.8,0.,4.8
1979-07-28 06:06:27.100 ,5,0,1.,4.8,0.,4.8,0.,4.8,0.,4.8
1979-07-28 06:06:31.900 ,5,0,2.,4.8,0.,4.8,0.,4.8,0.,4.8
1979-07-28 06:06:36.700 ,5,0,3.,4.8,0.,4.8,0.,4.8,0.,4.8
1979-07-28 06:06:41.500 ,5,0,7.,4.8,0.,4.8,0.,4.8,0.,4.8
1979-07-28 06:06:46.300 ,5,0,2.,4.8,0.,4.8,0.,4.8,0.,4.8
1979-07-28 06:06:51.100 ,5,0,3.,4.8,0.,4.8,0.,4.8,0.,4.8
1979-07-28 06:06:55.900 ,5,0,5.,4.8,0.,4.8,1.,4.8,0.,4.8
1979-07-28 06:07:00.700 ,5,0,1.,4.8,0.,4.8,1.,4.8,0.,4.8
1979-07-28 06:07:05.500 ,5,0,2.,4.8,0.,4.8,0.,4.8,0.,4.8
1979-07-28 06:07:10.300 ,4,0,2.,4.8,0.,4.8,0.,4.8,0.,4.8
1979-07-28 06:07:15.100 ,4,0,3.,4.8,0.,4.8,0.,4.8,0.,4.8
1979-07-28 06:07:19.900 ,4,0,2.,4.8,0.,4.8,0.,4.8,0.,4.8
1979-07-28 06:07:24.700 ,4,0,6.,4.8,0.,4.8,0.,4.8,0.,4.8
1979-07-28 06:07:29.500 ,4,0,1.,4.8,0.,4.8,0.,4.8,0.,4.8
1979-07-28 06:07:34.300 ,4,0,3.,4.8,0.,4.8,0.,4.8,0.,4.8
1979-07-28 06:07:39.100 ,4,0,1.,4.8,0.,4.8,0.,4.8,0.,4.8
1979-07-28 06:07:43.900 ,4,0,5.,4.8,0.,4.8,0.,4.8,0.,4.8
1979-07-28 06:07:48.700 ,4,0,2.,4.8,0.,4.8,0.,4.8,0.,4.8
1979-07-28 06:07:53.500 ,4,0,5.,4.8,0.,4.8,0.,4.8,0.,4.8
1979-07-28 06:07:58.300 ,3,0,1.,4.8,0.,4.8,0.,4.8,0.,4.8
1979-07-28 06:08:03.100 ,3,0,2.,4.8,0.,4.8,0.,4.8,0.,4.8
1979-07-28 06:08:07.900 ,3,0,3.,4.8,0.,4.8,1.,4.8,0.,4.8
1979-07-28 06:08:12.700 ,3,0,6.,4.8,0.,4.8,0.,4.8,0.,4.8
1979-07-28 06:08:17.500 ,3,0,1.,4.8,0.,4.8,0.,4.8,0.,4.8
1979-07-28 06:08:22.300 ,3,0,2.,4.8,0.,4.8,0.,4.8,0.,4.8
1979-07-28 06:08:27.100 ,3,0,5.,4.8,0.,4.8,0.,4.8,0.,4.8
1979-07-28 06:08:31.900 ,3,0,3.,4.8,0.,4.8,0.,4.8,0.,4.8
1979-07-28 06:08:36.700 ,3,0,4.,4.8,0.,4.8,0.,4.8,0.,4.8
1979-07-28 06:08:41.500 ,3,0,4.,4.8,0.,4.8,0.,4.8,0.,4.8
1979-07-28 06:08:46.300 ,2,0,2.,4.8,0.,4.8,0.,4.8,0.,4.8
1979-07-28 06:08:51.100 ,2,0,4.,4.8,0.,4.8,0.,4.8,0.,4.8
1979-07-28 06:08:55.900 ,2,0,3.,4.8,0.,4.8,0.,4.8,0.,4.8
1979-07-28 06:09:00.700 ,2,0,1.,4.8,0.,4.8,0.,4.8,0.,4.8
1979-07-28 06:09:05.500 ,2,0,6.,4.8,0.,4.8,0.,4.8,0.,4.8
1979-07-28 06:09:10.300 ,2,0,0.,4.8,0.,4.8,0.,4.8,0.,4.8
1979-07-28 06:09:15.100 ,2,0,2.,4.8,0.,4.8,0.,4.8,0.,4.8
1979-07-28 06:09:19.900 ,2,0,3.,4.8,0.,4.8,0.,4.8,0.,4.8
1979-07-28 06:09:24.700 ,2,0,5.,4.8,0.,4.8,0.,4.8,0.,4.8
1979-07-28 06:09:29.500 ,2,0,2.,4.8,0.,4.8,0.,4.8,0.,4.8
1979-07-28 06:09:34.300 ,1,0,7.,4.8,0.,4.8,0.,4.8,0.,4.8
1979-07-28 06:09:39.100 ,1,0,1.,4.8,0.,4.8,0.,4.8,0.,4.8
1979-07-28 06:09:43.900 ,1,0,5.,4.8,0.,4.8,0.,4.8,0.,4.8
1979-07-28 06:09:48.700 ,1,0,6.,4.8,0.,4.8,0.,4.8,0.,4.8
1979-07-28 06:09:53.500 ,1,0,3.,4.8,0.,4.8,0.,4.8,0.,4.8
1979-07-28 06:09:58.300 ,1,0,4.,4.8,0.,4.8,0.,4.8,0.,4.8
1979-07-28 06:10:03.100 ,1,0,2.,4.8,0.,4.8,0.,4.8,0.,4.8
1979-07-28 06:10:07.900 ,1,0,1.,4.8,0.,4.8,0.,4.8,0.,4.8
1979-07-28 06:10:12.700 ,1,0,4.,4.8,0.,4.8,1.,4.8,0.,4.8
1979-07-28 06:10:17.500 ,1,0,2.,4.8,0.,4.8,0.,4.8,0.,4.8
1979-07-28 06:10:22.300 ,0,0,3.,4.8,0.,4.8,0.,4.8,0.,4.8
1979-07-28 06:10:27.100 ,0,0,1.,4.8,0.,4.8,0.,4.8,0.,4.8
1979-07-28 06:10:31.900 ,0,0,2.,4.8,0.,4.8,1.,4.8,0.,4.8
1979-07-28 06:10:36.700 ,0,0,3.,4.8,0.,4.8,0.,4.8,0.,4.8
1979-07-28 06:10:41.500 ,0,0,3.,4.8,0.,4.8,0.,4.8,0.,4.8
1979-07-28 06:10:46.300 ,0,0,3.,4.8,0.,4.8,0.,4.8,0.,4.8
1979-07-28 06:10:51.100 ,0,0,2.,4.8,0.,4.8,0.,4.8,0.,4.8
1979-07-28 06:10:55.900 ,0,0,2.,4.8,0.,4.8,0.,4.8,0.,4.8
1979-07-28 06:11:00.700 ,0,0,4.,4.8,0.,4.8,0.,4.8,0.,4.8
1979-07-28 06:11:05.500 ,0,0,2.,4.8,0.,4.8,1.,4.8,0.,4.8
1979-07-28 06:11:10.300 ,0,0,10.,4.8,0.,4.8,0.,4.8,0.,4.8
1979-07-28 06:11:15.100 ,0,0,3.,4.8,0.,4.8,0.,4.8,0.,4.8
1979-07-28 06:11:19.900 ,0,0,5.,4.8,0.,4.8,0.,4.8,0.,4.8
1979-07-28 06:11:24.700 ,0,0,3.,4.8,0.,4.8,0.,4.8,0.,4.8
1979-07-28 06:11:29.500 ,0,0,2.,4.8,0.,4.8,1.,4.8,0.,4.8
1979-07-28 06:11:34.300 ,0,0,1.,4.8,0.,4.8,0.,4.8,0.,4.8
1979-07-28 06:11:39.100 ,0,0,3.,4.8,0.,4.8,1.,4.8,0.,4.8
1979-07-28 06:11:43.900 ,0,0,2.,4.8,0.,4.8,0.,4.8,0.,4.8
1979-07-28 06:11:48.700 ,0,0,7.,4.8,0.,4.8,1.,4.8,0.,4.8
1979-07-28 06:11:53.500 ,0,0,0.,4.8,0.,4.8,0.,4.8,0.,4.8
1979-07-28 06:11:58.300 ,1,0,3.,4.8,0.,4.8,0.,4.8,0.,4.8
1979-07-28 06:12:03.100 ,1,0,5.,4.8,0.,4.8,0.,4.8,0.,4.8
1979-07-28 06:12:07.900 ,1,0,4.,4.8,0.,4.8,0.,4.8,0.,4.8
1979-07-28 06:12:12.700 ,1,0,6.,4.8,0.,4.8,0.,4.8,0.,4.8
1979-07-28 06:12:17.500 ,1,0,5.,4.8,0.,4.8,0.,4.8,0.,4.8
1979-07-28 06:12:22.300 ,1,0,2.,4.8,0.,4.8,0.,4.8,0.,4.8
1979-07-28 06:12:27.100 ,1,0,2.,4.8,0.,4.8,0.,4.8,0.,4.8
1979-07-28 06:12:31.900 ,1,0,2.,4.8,0.,4.8,1.,4.8,0.,4.8
1979-07-28 06:12:36.700 ,1,0,0.,4.8,0.,4.8,0.,4.8,0.,4.8
1979-07-28 06:12:41.500 ,1,0,7.,4.8,0.,4.8,0.,4.8,0.,4.8
1979-07-28 06:12:46.300 ,2,0,3.,4.8,0.,4.8,1.,4.8,0.,4.8
1979-07-28 06:12:51.100 ,2,0,3.,4.8,0.,4.8,0.,4.8,0.,4.8
1979-07-28 06:12:55.900 ,2,0,2.,4.8,0.,4.8,1.,4.8,0.,4.8
1979-07-28 06:13:00.700 ,2,0,3.,4.8,0.,4.8,0.,4.8,0.,4.8
1979-07-28 06:13:05.500 ,2,0,3.,4.8,0.,4.8,0.,4.8,0.,4.8
1979-07-28 06:13:10.300 ,2,0,2.,4.8,0.,4.8,0.,4.8,0.,4.8
1979-07-28 06:13:15.100 ,2,0,3.,4.8,0.,4.8,0.,4.8,0.,4.8
1979-07-28 06:13:19.900 ,2,0,5.,4.8,0.,4.8,0.,4.8,0.,4.8
1979-07-28 06:13:24.700 ,2,0,2.,4.8,0.,4.8,0.,4.8,0.,4.8
1979-07-28 06:13:29.500 ,2,0,3.,4.8,0.,4.8,0.,4.8,0.,4.8
1979-07-28 06:13:34.300 ,3,0,6.,4.8,0.,4.8,0.,4.8,0.,4.8
1979-07-28 06:13:39.100 ,3,0,3.,4.8,0.,4.8,0.,4.8,0.,4.8
1979-07-28 06:13:43.900 ,3,0,2.,4.8,0.,4.8,0.,4.8,0.,4.8
1979-07-28 06:13:48.700 ,3,0,4.,4.8,0.,4.8,0.,4.8,0.,4.8
1979-07-28 06:13:53.500 ,3,0,3.,4.8,0.,4.8,0.,4.8,0.,4.8
1979-07-28 06:13:58.300 ,3,0,3.,4.8,0.,4.8,0.,4.8,0.,4.8
1979-07-28 06:14:03.100 ,3,0,0.,4.8,0.,4.8,0.,4.8,0.,4.8
1979-07-28 06:14:07.900 ,3,0,3.,4.8,0.,4.8,0.,4.8,0.,4.8
1979-07-28 06:14:12.700 ,3,0,0.,4.8,0.,4.8,0.,4.8,0.,4.8
1979-07-28 06:14:17.500 ,3,0,1.,4.8,0.,4.8,0.,4.8,0.,4.8
1979-07-28 06:14:22.300 ,4,0,1.,4.8,0.,4.8,0.,4.8,0.,4.8
1979-07-28 06:14:27.100 ,4,0,4.,4.8,0.,4.8,0.,4.8,0.,4.8
1979-07-28 06:14:31.900 ,4,0,9.,4.8,0.,4.8,0.,4.8,0.,4.8
1979-07-28 06:14:36.700 ,4,0,9.,4.8,1.,4.8,0.,4.8,0.,4.8
1979-07-28 06:14:41.500 ,4,0,2.,4.8,0.,4.8,0.,4.8,0.,4.8
1979-07-28 06:14:46.300 ,4,0,6.,4.8,0.,4.8,0.,4.8,0.,4.8
1979-07-28 06:14:51.100 ,4,0,1.,4.8,0.,4.8,0.,4.8,0.,4.8
1979-07-28 06:14:55.900 ,4,0,0.,4.8,0.,4.8,0.,4.8,0.,4.8
1979-07-28 06:15:00.700 ,4,0,2.,4.8,0.,4.8,0.,4.8,0.,4.8
1979-07-28 06:15:05.500 ,4,0,3.,4.8,0.,4.8,1.,4.8,0.,4.8
1979-07-28 06:15:10.300 ,5,0,5.,4.8,0.,4.8,0.,4.8,0.,4.8
1979-07-28 06:15:15.100 ,5,0,1.,4.8,0.,4.8,0.,4.8,0.,4.8
1979-07-28 06:15:19.900 ,5,0,3.,4.8,0.,4.8,0.,4.8,0.,4.8
1979-07-28 06:15:24.700 ,5,0,6.,4.8,0.,4.8,0.,4.8,0.,4.8
1979-07-28 06:15:29.500 ,5,0,4.,4.8,0.,4.8,0.,4.8,0.,4.8
1979-07-28 06:15:34.300 ,5,0,2.,4.8,0.,4.8,0.,4.8,0.,4.8
1979-07-28 06:15:39.100 ,5,0,3.,4.8,0.,4.8,0.,4.8,0.,4.8
1979-07-28 06:15:43.900 ,5,0,2.,4.8,0.,4.8,0.,4.8,0.,4.8
1979-07-28 06:15:48.700 ,5,0,7.,4.8,0.,4.8,0.,4.8,0.,4.8
1979-07-28 06:15:53.500 ,5,0,4.,4.8,0.,4.8,0.,4.8,0.,4.8
1979-07-28 06:15:58.300 ,6,0,4.,4.8,0.,4.8,0.,4.8,0.,4.8
1979-07-28 06:16:03.100 ,6,0,3.,4.8,0.,4.8,0.,4.8,0.,4.8
1979-07-28 06:16:07.900 ,6,0,2.,4.8,0.,4.8,0.,4.8,0.,4.8
1979-07-28 06:16:12.700 ,6,0,2.,4.8,0.,4.8,0.,4.8,0.,4.8
1979-07-28 06:16:17.500 ,6,0,3.,4.8,0.,4.8,0.,4.8,0.,4.8
1979-07-28 06:16:22.300 ,6,0,6.,4.8,0.,4.8,1.,4.8,0.,4.8
1979-07-28 06:16:27.100 ,6,0,3.,4.8,1.,4.8,0.,4.8,0.,4.8
1979-07-28 06:16:31.900 ,6,0,1.,4.8,0.,4.8,0.,4.8,0.,4.8
1979-07-28 06:16:36.700 ,6,0,2.,4.8,0.,4.8,0.,4.8,0.,4.8
1979-07-28 06:16:41.500 ,6,0,3.,4.8,0.,4.8,0.,4.8,0.,4.8
1979-07-28 06:16:46.300 ,7,0,0.,4.8,0.,4.8,0.,4.8,0.,4.8
1979-07-28 06:16:51.100 ,7,0,3.,4.8,0.,4.8,0.,4.8,0.,4.8
1979-07-28 06:16:55.900 ,7,0,2.,4.8,0.,4.8,0.,4.8,0.,4.8
1979-07-28 06:17:00.700 ,7,0,2.,4.8,0.,4.8,0.,4.8,0.,4.8
1979-07-28 06:17:05.500 ,7,0,4.,4.8,0.,4.8,0.,4.8,0.,4.8
1979-07-28 06:17:10.300 ,7,0,5.,4.8,0.,4.8,0.,4.8,0.,4.8
1979-07-28 06:17:15.100 ,7,0,3.,4.8,0.,4.8,0.,4.8,0.,4.8
1979-07-28 06:17:19.900 ,7,0,3.,4.8,0.,4.8,1.,4.8,0.,4.8
1979-07-28 06:17:24.700 ,7,0,3.,4.8,0.,4.8,1.,4.8,0.,4.8
1979-07-28 06:17:29.500 ,7,0,0.,4.8,0.,4.8,0.,4.8,0.,4.8
1979-07-28 06:17:34.300 ,7,0,3.,4.8,0.,4.8,0.,4.8,0.,4.8
1979-07-28 06:17:39.100 ,7,0,5.,4.8,0.,4.8,0.,4.8,0.,4.8
1979-07-28 06:17:43.900 ,7,0,3.,4.8,0.,4.8,0.,4.8,0.,4.8
1979-07-28 06:17:48.700 ,7,0,0.,4.8,0.,4.8,0.,4.8,0.,4.8
1979-07-28 06:17:53.500 ,7,0,1.,4.8,0.,4.8,0.,4.8,0.,4.8
1979-07-28 06:17:58.300 ,7,0,1.,4.8,0.,4.8,0.,4.8,0.,4.8
1979-07-28 06:18:03.100 ,7,0,4.,4.8,0.,4.8,0.,4.8,0.,4.8
1979-07-28 06:18:07.900 ,7,0,3.,4.8,0.,4.8,0.,4.8,0.,4.8
1979-07-28 06:18:12.700 ,7,0,0.,4.8,0.,4.8,0.,4.8,0.,4.8
1979-07-28 06:18:17.500 ,7,0,2.,4.8,0.,4.8,0.,4.8,0.,4.8
1979-07-28 06:18:22.300 ,6,0,1.,4.8,0.,4.8,0.,4.8,0.,4.8
1979-07-28 06:18:27.100 ,6,0,0.,4.8,0.,4.8,0.,4.8,0.,4.8
1979-07-28 06:18:31.900 ,6,0,5.,4.8,0.,4.8,0.,4.8,0.,4.8
1979-07-28 06:18:36.700 ,6,0,1.,4.8,0.,4.8,0.,4.8,0.,4.8
1979-07-28 06:18:41.500 ,6,0,3.,4.8,0.,4.8,1.,4.8,0.,4.8
1979-07-28 06:18:46.300 ,6,0,0.,4.8,0.,4.8,0.,4.8,0.,4.8
1979-07-28 06:18:51.100 ,6,0,4.,4.8,0.,4.8,0.,4.8,0.,4.8
1979-07-28 06:18:55.900 ,6,0,1.,4.8,0.,4.8,0.,4.8,0.,4.8
1979-07-28 06:19:00.700 ,6,0,6.,4.8,0.,4.8,0.,4.8,0.,4.8
1979-07-28 06:19:05.500 ,6,0,2.,4.8,0.,4.8,0.,4.8,0.,4.8
1979-07-28 06:19:10.300 ,5,0,4.,4.8,0.,4.8,0.,4.8,0.,4.8
1979-07-28 06:19:15.100 ,5,0,4.,4.8,0.,4.8,0.,4.8,0.,4.8
1979-07-28 06:19:19.900 ,5,0,5.,4.8,0.,4.8,0.,4.8,0.,4.8
1979-07-28 06:19:24.700 ,5,0,3.,4.8,0.,4.8,0.,4.8,0.,4.8
1979-07-28 06:19:29.500 ,5,0,3.,4.8,0.,4.8,0.,4.8,0.,4.8
1979-07-28 06:19:34.300 ,5,0,3.,4.8,0.,4.8,1.,4.8,0.,4.8
1979-07-28 06:19:39.100 ,5,0,3.,4.8,0.,4.8,0.,4.8,0.,4.8
1979-07-28 06:19:43.900 ,5,0,4.,4.8,0.,4.8,0.,4.8,0.,4.8
1979-07-28 06:19:48.700 ,5,0,2.,4.8,0.,4.8,0.,4.8,0.,4.8
1979-07-28 06:19:53.500 ,5,0,5.,4.8,0.,4.8,0.,4.8,0.,4.8
1979-07-28 06:19:58.300 ,4,0,4.,4.8,0.,4.8,0.,4.8,0.,4.8
1979-07-28 06:20:03.100 ,4,0,2.,4.8,0.,4.8,1.,4.8,0.,4.8
1979-07-28 06:20:07.900 ,4,0,5.,4.8,0.,4.8,0.,4.8,0.,4.8
1979-07-28 06:20:12.700 ,4,0,3.,4.8,0.,4.8,0.,4.8,0.,4.8
1979-07-28 06:20:17.500 ,4,0,3.,4.8,0.,4.8,0.,4.8,0.,4.8
1979-07-28 06:20:22.300 ,4,0,4.,4.8,0.,4.8,0.,4.8,0.,4.8
1979-07-28 06:20:27.100 ,4,0,2.,4.8,0.,4.8,0.,4.8,0.,4.8
1979-07-28 06:20:31.900 ,4,0,5.,4.8,0.,4.8,0.,4.8,0.,4.8
1979-07-28 06:20:36.700 ,4,0,3.,4.8,0.,4.8,0.,4.8,0.,4.8
1979-07-28 06:20:41.500 ,4,0,4.,4.8,0.,4.8,0.,4.8,0.,4.8
1979-07-28 06:20:46.300 ,3,0,5.,4.8,0.,4.8,0.,4.8,0.,4.8
1979-07-28 06:20:51.100 ,3,0,5.,4.8,0.,4.8,0.,4.8,0.,4.8
1979-07-28 06:20:55.900 ,3,0,1.,4.8,0.,4.8,0.,4.8,0.,4.8
1979-07-28 06:21:00.700 ,3,0,1.,4.8,0.,4.8,0.,4.8,0.,4.8
1979-07-28 06:21:05.500 ,3,0,7.,4.8,0.,4.8,0.,4.8,0.,4.8
1979-07-28 06:21:10.300 ,3,0,3.,4.8,0.,4.8,0.,4.8,0.,4.8
1979-07-28 06:21:15.100 ,3,0,3.,4.8,0.,4.8,0.,4.8,0.,4.8
1979-07-28 06:21:19.900 ,3,0,2.,4.8,0.,4.8,0.,4.8,0.,4.8
1979-07-28 06:21:24.700 ,3,0,2.,4.8,0.,4.8,0.,4.8,0.,4.8
1979-07-28 06:21:29.500 ,3,0,4.,4.8,0.,4.8,0.,4.8,0.,4.8
1979-07-28 06:21:34.300 ,2,0,3.,4.8,0.,4.8,0.,4.8,0.,4.8
1979-07-28 06:21:39.100 ,2,0,3.,4.8,0.,4.8,0.,4.8,0.,4.8
1979-07-28 06:21:43.900 ,2,0,2.,4.8,0.,4.8,0.,4.8,0.,4.8
1979-07-28 06:21:48.700 ,2,0,2.,4.8,0.,4.8,0.,4.8,0.,4.8
1979-07-28 06:21:53.500 ,2,0,2.,4.8,0.,4.8,0.,4.8,0.,4.8
1979-07-28 06:21:58.300 ,2,0,2.,4.8,0.,4.8,0.,4.8,0.,4.8
1979-07-28 06:22:03.100 ,2,0,9.,4.8,0.,4.8,0.,4.8,0.,4.8
1979-07-28 06:22:07.900 ,2,0,5.,4.8,0.,4.8,0.,4.8,0.,4.8
1979-07-28 06:22:12.700 ,2,0,3.,4.8,0.,4.8,0.,4.8,0.,4.8
1979-07-28 06:22:17.500 ,2,0,3.,4.8,0.,4.8,0.,4.8,0.,4.8
1979-07-28 06:22:22.300 ,1,0,1.,4.8,0.,4.8,0.,4.8,0.,4.8
1979-07-28 06:22:27.100 ,1,0,4.,4.8,0.,4.8,0.,4.8,0.,4.8
1979-07-28 06:22:31.900 ,1,0,2.,4.8,0.,4.8,0.,4.8,0.,4.8
1979-07-28 06:22:36.700 ,1,0,5.,4.8,0.,4.8,0.,4.8,0.,4.8
1979-07-28 06:22:41.500 ,1,0,4.,4.8,0.,4.8,0.,4.8,0.,4.8
1979-07-28 06:22:46.300 ,1,0,2.,4.8,0.,4.8,0.,4.8,0.,4.8
1979-07-28 06:22:51.100 ,1,0,2.,4.8,0.,4.8,0.,4.8,0.,4.8
1979-07-28 06:22:55.900 ,1,0,4.,4.8,0.,4.8,0.,4.8,0.,4.8
1979-07-28 06:23:00.700 ,1,0,2.,4.8,0.,4.8,0.,4.8,0.,4.8
1979-07-28 06:23:05.500 ,1,0,3.,4.8,0.,4.8,0.,4.8,0.,4.8
1979-07-28 06:23:10.300 ,0,0,5.,4.8,0.,4.8,0.,4.8,0.,4.8
1979-07-28 06:23:15.100 ,0,0,2.,4.8,0.,4.8,0.,4.8,0.,4.8
1979-07-28 06:23:19.900 ,0,0,6.,4.8,0.,4.8,0.,4.8,0.,4.8
1979-07-28 06:23:24.700 ,0,0,5.,4.8,0.,4.8,0.,4.8,0.,4.8
1979-07-28 06:23:29.500 ,0,0,5.,4.8,0.,4.8,0.,4.8,0.,4.8
1979-07-28 06:23:34.300 ,0,0,1.,4.8,0.,4.8,0.,4.8,0.,4.8
1979-07-28 06:23:39.100 ,0,0,2.,4.8,0.,4.8,0.,4.8,0.,4.8
1979-07-28 06:23:43.900 ,0,0,1.,4.8,0.,4.8,0.,4.8,0.,4.8
1979-07-28 06:23:48.700 ,0,0,5.,4.8,0.,4.8,0.,4.8,0.,4.8
1979-07-28 06:23:53.500 ,0,0,6.,4.8,0.,4.8,0.,4.8,0.,4.8
1979-07-28 06:23:58.300 ,0,0,1.,4.8,0.,4.8,0.,4.8,0.,4.8
1979-07-28 06:24:03.100 ,0,0,2.,4.8,0.,4.8,0.,4.8,0.,4.8
1979-07-28 06:24:07.900 ,0,0,4.,4.8,0.,4.8,0.,4.8,0.,4.8
1979-07-28 06:24:12.700 ,0,0,0.,4.8,0.,4.8,0.,4.8,0.,4.8
1979-07-28 06:24:17.500 ,0,0,1.,4.8,0.,4.8,0.,4.8,0.,4.8
1979-07-28 06:24:22.300 ,0,0,3.,4.8,0.,4.8,0.,4.8,0.,4.8
1979-07-28 06:24:27.100 ,0,0,4.,4.8,0.,4.8,0.,4.8,0.,4.8
1979-07-28 06:24:31.900 ,0,0,3.,4.8,0.,4.8,1.,4.8,0.,4.8
1979-07-28 06:24:36.700 ,0,0,3.,4.8,0.,4.8,0.,4.8,0.,4.8
1979-07-28 06:24:41.500 ,0,0,1.,4.8,0.,4.8,0.,4.8,0.,4.8
1979-07-28 06:24:46.300 ,1,0,5.,4.8,0.,4.8,0.,4.8,0.,4.8
1979-07-28 06:24:51.100 ,1,0,1.,4.8,0.,4.8,0.,4.8,0.,4.8
1979-07-28 06:24:55.900 ,1,0,5.,4.8,0.,4.8,0.,4.8,0.,4.8
1979-07-28 06:25:00.700 ,1,0,2.,4.8,0.,4.8,1.,4.8,0.,4.8
1979-07-28 06:25:05.500 ,1,0,2.,4.8,0.,4.8,0.,4.8,0.,4.8
1979-07-28 06:25:10.300 ,1,0,7.,4.8,0.,4.8,0.,4.8,0.,4.8
1979-07-28 06:25:15.100 ,1,0,4.,4.8,1.,4.8,0.,4.8,0.,4.8
1979-07-28 06:25:19.900 ,1,0,9.,4.8,0.,4.8,0.,4.8,0.,4.8
1979-07-28 06:25:24.700 ,1,0,1.,4.8,0.,4.8,0.,4.8,0.,4.8
1979-07-28 06:25:29.500 ,1,0,2.,4.8,0.,4.8,0.,4.8,0.,4.8
1979-07-28 06:25:34.300 ,2,0,6.,4.8,0.,4.8,0.,4.8,0.,4.8
1979-07-28 06:25:39.100 ,2,0,5.,4.8,0.,4.8,0.,4.8,0.,4.8
1979-07-28 06:25:43.900 ,2,0,5.,4.8,0.,4.8,1.,4.8,0.,4.8
1979-07-28 06:25:48.700 ,2,0,2.,4.8,0.,4.8,0.,4.8,0.,4.8
1979-07-28 06:25:53.500 ,2,0,2.,4.8,0.,4.8,0.,4.8,0.,4.8
1979-07-28 06:25:58.300 ,2,0,3.,4.8,0.,4.8,0.,4.8,0.,4.8
1979-07-28 06:26:03.100 ,2,0,2.,4.8,0.,4.8,0.,4.8,0.,4.8
1979-07-28 06:26:07.900 ,2,0,8.,4.8,0.,4.8,0.,4.8,0.,4.8
1979-07-28 06:26:12.700 ,2,0,6.,4.8,0.,4.8,0.,4.8,0.,4.8
1979-07-28 06:26:17.500 ,2,0,5.,4.8,0.,4.8,0.,4.8,0.,4.8
1979-07-28 06:26:22.300 ,3,0,3.,4.8,0.,4.8,0.,4.8,0.,4.8
1979-07-28 06:26:27.100 ,3,0,2.,4.8,0.,4.8,0.,4.8,0.,4.8
1979-07-28 06:26:31.900 ,3,0,0.,4.8,0.,4.8,0.,4.8,0.,4.8
1979-07-28 06:26:36.700 ,3,0,1.,4.8,0.,4.8,0.,4.8,0.,4.8
1979-07-28 06:26:41.500 ,3,0,4.,4.8,0.,4.8,0.,4.8,0.,4.8
1979-07-28 06:26:46.300 ,3,0,5.,4.8,0.,4.8,0.,4.8,0.,4.8
1979-07-28 06:26:51.100 ,3,0,1.,4.8,0.,4.8,1.,4.8,0.,4.8
1979-07-28 06:26:55.900 ,3,0,5.,4.8,0.,4.8,0.,4.8,0.,4.8
1979-07-28 06:27:00.700 ,3,0,3.,4.8,0.,4.8,0.,4.8,0.,4.8
1979-07-28 06:27:05.500 ,3,0,4.,4.8,0.,4.8,0.,4.8,0.,4.8
1979-07-28 06:27:10.300 ,4,0,1.,4.8,0.,4.8,1.,4.8,0.,4.8
1979-07-28 06:27:15.100 ,4,0,2.,4.8,0.,4.8,0.,4.8,0.,4.8
1979-07-28 06:27:19.900 ,4,0,4.,4.8,0.,4.8,0.,4.8,0.,4.8
1979-07-28 06:27:24.700 ,4,0,2.,4.8,0.,4.8,0.,4.8,0.,4.8
1979-07-28 06:27:29.500 ,4,0,4.,4.8,0.,4.8,0.,4.8,0.,4.8
1979-07-28 06:27:34.300 ,4,0,3.,4.8,0.,4.8,0.,4.8,0.,4.8
1979-07-28 06:27:39.100 ,4,0,6.,4.8,0.,4.8,0.,4.8,0.,4.8
1979-07-28 06:27:43.900 ,4,0,4.,4.8,0.,4.8,0.,4.8,0.,4.8
1979-07-28 06:27:48.700 ,4,0,3.,4.8,0.,4.8,0.,4.8,0.,4.8
1979-07-28 06:27:53.500 ,4,0,4.,4.8,0.,4.8,0.,4.8,0.,4.8
1979-07-28 06:27:58.300 ,5,0,1.,4.8,0.,4.8,0.,4.8,0.,4.8
1979-07-28 06:28:03.100 ,5,0,3.,4.8,0.,4.8,1.,4.8,0.,4.8
1979-07-28 06:28:07.900 ,5,0,5.,4.8,0.,4.8,0.,4.8,0.,4.8
1979-07-28 06:28:12.700 ,5,0,5.,4.8,0.,4.8,0.,4.8,0.,4.8
1979-07-28 06:28:17.500 ,5,0,3.,4.8,0.,4.8,0.,4.8,0.,4.8
1979-07-28 06:28:22.300 ,5,0,4.,4.8,0.,4.8,0.,4.8,0.,4.8
1979-07-28 06:28:27.100 ,5,0,2.,4.8,0.,4.8,0.,4.8,0.,4.8
1979-07-28 06:28:31.900 ,5,0,3.,4.8,0.,4.8,0.,4.8,0.,4.8
1979-07-28 06:28:36.700 ,5,0,4.,4.8,0.,4.8,0.,4.8,0.,4.8
1979-07-28 06:28:41.500 ,5,0,7.,4.8,0.,4.8,0.,4.8,0.,4.8
1979-07-28 06:28:46.300 ,6,0,3.,4.8,0.,4.8,0.,4.8,0.,4.8
1979-07-28 06:28:51.100 ,6,0,0.,4.8,0.,4.8,1.,4.8,0.,4.8
1979-07-28 06:28:55.900 ,6,0,4.,4.8,0.,4.8,0.,4.8,0.,4.8
1979-07-28 06:29:00.700 ,6,0,3.,4.8,0.,4.8,0.,4.8,0.,4.8
1979-07-28 06:29:05.500 ,6,0,2.,4.8,0.,4.8,0.,4.8,0.,4.8
1979-07-28 06:29:10.300 ,6,0,4.,4.8,0.,4.8,0.,4.8,0.,4.8
1979-07-28 06:29:15.100 ,6,0,2.,4.8,0.,4.8,1.,4.8,0.,4.8
1979-07-28 06:29:19.900 ,6,0,4.,4.8,0.,4.8,0.,4.8,0.,4.8
1979-07-28 06:29:24.700 ,6,0,5.,4.8,0.,4.8,0.,4.8,0.,4.8
1979-07-28 06:29:29.500 ,6,0,6.,4.8,0.,4.8,0.,4.8,0.,4.8
1979-07-28 06:29:34.300 ,7,0,3.,4.8,0.,4.8,0.,4.8,0.,4.8
1979-07-28 06:29:39.100 ,7,0,5.,4.8,0.,4.8,1.,4.8,0.,4.8
1979-07-28 06:29:43.900 ,7,0,3.,4.8,1.,4.8,0.,4.8,0.,4.8
1979-07-28 06:29:48.700 ,7,0,3.,4.8,0.,4.8,0.,4.8,0.,4.8
1979-07-28 06:29:53.500 ,7,0,3.,4.8,0.,4.8,0.,4.8,0.,4.8
1979-07-28 06:29:58.300 ,7,0,3.,4.8,0.,4.8,0.,4.8,0.,4.8
1979-07-28 06:30:03.100 ,7,0,3.,4.8,0.,4.8,0.,4.8,0.,4.8
1979-07-28 06:30:07.900 ,7,0,5.,4.8,0.,4.8,0.,4.8,0.,4.8
1979-07-28 06:30:12.700 ,7,0,2.,4.8,0.,4.8,0.,4.8,0.,4.8
1979-07-28 06:30:17.500 ,7,0,2.,4.8,0.,4.8,0.,4.8,0.,4.8
1979-07-28 06:30:22.300 ,7,0,3.,4.8,0.,4.8,0.,4.8,0.,4.8
1979-07-28 06:30:27.100 ,7,0,1.,4.8,0.,4.8,0.,4.8,0.,4.8
1979-07-28 06:30:31.900 ,7,0,3.,4.8,0.,4.8,0.,4.8,0.,4.8
1979-07-28 06:30:36.700 ,7,0,1.,4.8,0.,4.8,0.,4.8,0.,4.8
1979-07-28 06:30:41.500 ,7,0,4.,4.8,0.,4.8,0.,4.8,0.,4.8
1979-07-28 06:30:46.300 ,7,0,3.,4.8,0.,4.8,0.,4.8,0.,4.8
1979-07-28 06:30:51.100 ,7,0,2.,4.8,0.,4.8,0.,4.8,0.,4.8
1979-07-28 06:30:55.900 ,7,0,0.,4.8,0.,4.8,0.,4.8,0.,4.8
1979-07-28 06:31:00.700 ,7,0,3.,4.8,0.,4.8,0.,4.8,0.,4.8
1979-07-28 06:31:05.500 ,7,0,3.,4.8,0.,4.8,0.,4.8,0.,4.8
1979-07-28 06:31:10.300 ,6,0,2.,4.8,0.,4.8,0.,4.8,0.,4.8
1979-07-28 06:31:15.100 ,6,0,0.,4.8,0.,4.8,0.,4.8,0.,4.8
1979-07-28 06:31:19.900 ,6,0,2.,4.8,0.,4.8,0.,4.8,0.,4.8
1979-07-28 06:31:24.700 ,6,0,2.,4.8,0.,4.8,0.,4.8,0.,4.8
1979-07-28 06:31:29.500 ,6,0,0.,4.8,0.,4.8,0.,4.8,0.,4.8
1979-07-28 06:31:34.300 ,6,0,2.,4.8,0.,4.8,0.,4.8,0.,4.8
1979-07-28 06:31:39.100 ,6,0,4.,4.8,0.,4.8,0.,4.8,0.,4.8
1979-07-28 06:31:43.900 ,6,0,4.,4.8,0.,4.8,0.,4.8,0.,4.8
1979-07-28 06:31:48.700 ,6,0,4.,4.8,0.,4.8,0.,4.8,0.,4.8
1979-07-28 06:31:53.500 ,6,0,3.,4.8,0.,4.8,0.,4.8,0.,4.8
1979-07-28 06:31:58.300 ,5,0,2.,4.8,1.,4.8,0.,4.8,0.,4.8
1979-07-28 06:32:03.100 ,5,0,5.,4.8,0.,4.8,1.,4.8,0.,4.8
1979-07-28 06:32:07.900 ,5,0,1.,4.8,0.,4.8,0.,4.8,0.,4.8
1979-07-28 06:32:12.700 ,5,0,2.,4.8,0.,4.8,0.,4.8,0.,4.8
1979-07-28 06:32:17.500 ,5,0,4.,4.8,0.,4.8,1.,4.8,0.,4.8
1979-07-28 06:32:22.300 ,5,0,3.,4.8,0.,4.8,0.,4.8,0.,4.8
1979-07-28 06:32:27.100 ,5,0,5.,4.8,0.,4.8,1.,4.8,0.,4.8
1979-07-28 06:32:31.900 ,5,0,4.,4.8,0.,4.8,0.,4.8,0.,4.8
1979-07-28 06:32:36.700 ,5,0,4.,4.8,0.,4.8,0.,4.8,0.,4.8
1979-07-28 06:32:41.500 ,5,0,7.,4.8,0.,4.8,0.,4.8,0.,4.8
1979-07-28 06:32:46.300 ,4,0,2.,4.8,0.,4.8,0.,4.8,0.,4.8
1979-07-28 06:32:51.100 ,4,0,3.,4.8,0.,4.8,0.,4.8,0.,4.8
1979-07-28 06:32:55.900 ,4,0,7.,4.8,0.,4.8,0.,4.8,0.,4.8
1979-07-28 06:33:00.700 ,4,0,6.,4.8,0.,4.8,0.,4.8,0.,4.8
1979-07-28 06:33:05.500 ,4,0,3.,4.8,0.,4.8,0.,4.8,0.,4.8
1979-07-28 06:33:10.300 ,4,0,6.,4.8,0.,4.8,0.,4.8,0.,4.8
1979-07-28 06:33:15.100 ,4,0,2.,4.8,0.,4.8,0.,4.8,0.,4.8